| time (UTC) | temp F | wind direction | speed MPH | gust MPH | rain 1hr in | rain 24hr in | rain mn in | humidity % | barometer mb |
| 20260506135048 | 48 | 38 | 0.0 | 1.0 | 0.12 | 0.21 | 0.21 | 99 | 1009.2 |
| 20260506134545 | 48 | 45 | 3.0 | 3.0 | 0.12 | 0.21 | 0.21 | 99 | 1009.2 |
| 20260506134040 | 48 | 22 | 5.0 | 7.0 | 0.05 | 0.19 | 0.19 | 99 | 1009.1 |
| 20260506133538 | 48 | 35 | 2.0 | 2.0 | 0.07 | 0.18 | 0.18 | 99 | 1009.1 |
| 20260506133035 | 49 | 45 | 5.0 | 6.0 | 0.12 | 0.18 | 0.18 | 99 | 1009.0 |
| 20260506132532 | 49 | 17 | 5.0 | 10.0 | 0.05 | 0.17 | 0.17 | 99 | 1009.2 |
| 20260506132029 | 50 | 89 | 4.0 | 6.0 | 0.07 | 0.16 | 0.16 | 99 | 1009.2 |
| 20260506131526 | 50 | 28 | 3.0 | 3.0 | 0.12 | 0.16 | 0.16 | 99 | 1008.9 |
| 20260506131023 | 50 | 12 | 3.0 | 5.0 | 0.12 | 0.15 | 0.15 | 99 | 1009.3 |
| 20260506130519 | 50 | 48 | 4.0 | 5.0 | 0.07 | 0.14 | 0.14 | 99 | 1009.4 |
| 20260506130017 | 51 | 29 | 5.0 | 8.0 | 0.05 | 0.13 | 0.13 | 99 | 1009.2 |
| 20260506125515 | 51 | 18 | 0.0 | 1.0 | 0.12 | 0.13 | 0.13 | 99 | 1009.4 |
| 20260506125013 | 51 | 46 | 5.0 | 6.0 | 0.14 | 0.12 | 0.12 | 99 | 1009.3 |
| 20260506124510 | 52 | 31 | 3.0 | 3.0 | 0.12 | 0.11 | 0.11 | 99 | 1009.4 |
| 20260506124008 | 52 | 69 | 1.0 | 1.0 | 0.12 | 0.10 | 0.10 | 99 | 1009.6 |
| 20260506123506 | 52 | 39 | 1.0 | 2.0 | 0.12 | 0.09 | 0.09 | 99 | 1009.6 |
| 20260506123003 | 52 | 38 | 2.0 | 2.0 | 0.12 | 0.08 | 0.08 | 99 | 1009.4 |
| 20260506122500 | 52 | 13 | 4.0 | 5.0 | 0.12 | 0.07 | 0.07 | 99 | 1009.8 |
| 20260506121958 | 52 | 58 | 0.0 | 1.0 | 0.05 | 0.06 | 0.06 | 99 | 1009.7 |
| 20260506121455 | 52 | 53 | 1.0 | 1.0 | 0.12 | 0.06 | 0.06 | 99 | 1009.8 |
| 20260506120952 | 52 | 46 | 3.0 | 5.0 | 0.07 | 0.05 | 0.05 | 99 | 1009.6 |
| 20260506120449 | 52 | 34 | 4.0 | 5.0 | 0.05 | 0.04 | 0.04 | 99 | 1009.4 |
| 20260506115946 | 53 | 41 | 1.0 | 6.0 | 0.05 | 0.04 | 0.04 | 99 | 1009.3 |
| 20260506115444 | 53 | 52 | 4.0 | 6.0 | 0.00 | 0.03 | 0.03 | 99 | 1008.9 |
| 20260506114943 | 53 | 44 | 2.0 | 3.0 | 0.00 | 0.03 | 0.03 | 99 | 1009.2 |
| 20260506114440 | 53 | 27 | 2.0 | 2.0 | 0.00 | 0.03 | 0.03 | 99 | 1009.2 |
| 20260506113938 | 53 | 69 | 2.0 | 3.0 | 0.00 | 0.03 | 0.03 | 99 | 1009.3 |
| 20260506113436 | 54 | 69 | 1.0 | 2.0 | 0.00 | 0.03 | 0.03 | 99 | 1008.9 |
| 20260506112932 | 54 | 10 | 1.0 | 2.0 | 0.00 | 0.03 | 0.03 | 99 | 1009.4 |
| 20260506112430 | 54 | 38 | 0.0 | 1.0 | 0.00 | 0.03 | 0.03 | 99 | 1009.2 |
| 20260506111927 | 54 | 59 | 1.0 | 1.0 | 0.00 | 0.03 | 0.03 | 99 | 1009.3 |
| 20260506111425 | 55 | 40 | 2.0 | 3.0 | 0.00 | 0.03 | 0.03 | 99 | 1008.7 |
| 20260506110922 | 55 | 20 | 3.0 | 3.0 | 0.00 | 0.03 | 0.03 | 99 | 1009.0 |
| 20260506110419 | 55 | 19 | 0.0 | 0.0 | 0.00 | 0.03 | 0.03 | 99 | 1009.1 |
| 20260506105910 | 55 | 22 | 1.0 | 1.0 | 0.07 | 0.03 | 0.03 | 99 | 1008.8 |
| 20260506105406 | 55 | 281 | 3.0 | 3.0 | 0.07 | 0.03 | 0.03 | 99 | 1009.0 |
| 20260506104904 | 55 | 32 | 0.0 | 0.0 | 0.00 | 0.02 | 0.02 | 99 | 1008.8 |
| 20260506104401 | 55 | 33 | 1.0 | 2.0 | 0.00 | 0.02 | 0.02 | 99 | 1008.3 |
| 20260506103859 | 55 | 333 | 3.0 | 3.0 | 0.00 | 0.02 | 0.02 | 99 | 1009.0 |
| 20260506103357 | 54 | 22 | 0.0 | 1.0 | 0.00 | 0.02 | 0.02 | 99 | 1008.8 |
| 20260506102854 | 54 | 271 | 1.0 | 2.0 | 0.00 | 0.02 | 0.02 | 99 | 1009.0 |
| 20260506102352 | 54 | 282 | 2.0 | 2.0 | 0.00 | 0.02 | 0.02 | 99 | 1009.0 |
| 20260506101849 | 54 | 276 | 1.0 | 2.0 | 0.00 | 0.02 | 0.02 | 99 | 1008.7 |
| 20260506101345 | 54 | 9 | 0.0 | 0.0 | 0.00 | 0.02 | 0.02 | 99 | 1008.5 |
| 20260506100843 | 54 | 44 | 0.0 | 0.0 | 0.00 | 0.02 | 0.02 | 99 | 1008.6 |
| 20260506100341 | 54 | 38 | 0.0 | 0.0 | 0.00 | 0.02 | 0.02 | 99 | 1008.5 |
| 20260506095839 | 54 | 44 | 0.0 | 0.0 | 0.00 | 0.02 | 0.02 | 99 | 1008.4 |
| 20260506095336 | 54 | 31 | 0.0 | 0.0 | 0.00 | 0.02 | 0.02 | 99 | 1008.3 |
| 20260506094833 | 54 | 28 | 0.0 | 0.0 | 0.00 | 0.02 | 0.02 | 99 | 1008.3 |
| 20260506094332 | 54 | 324 | 1.0 | 2.0 | 0.00 | 0.02 | 0.02 | 99 | 1008.5 |
| 20260506093829 | 54 | 346 | 0.0 | 1.0 | 0.00 | 0.02 | 0.02 | 99 | 1008.4 |
| 20260506093326 | 54 | 2 | 0.0 | 0.0 | 0.00 | 0.02 | 0.02 | 99 | 1008.4 |
| 20260506092824 | 54 | 352 | 0.0 | 0.0 | 0.00 | 0.02 | 0.02 | 99 | 1008.5 |
| 20260506092321 | 54 | 9 | 0.0 | 0.0 | 0.00 | 0.02 | 0.02 | 99 | 1008.6 |
| 20260506091818 | 53 | 18 | 0.0 | 0.0 | 0.00 | 0.02 | 0.02 | 99 | 1008.5 |
| 20260506091316 | 54 | 20 | 0.0 | 0.0 | 0.00 | 0.02 | 0.02 | 99 | 1008.6 |
| 20260506090814 | 54 | 5 | 0.0 | 1.0 | 0.00 | 0.02 | 0.02 | 99 | 1008.7 |
| 20260506090310 | 53 | 21 | 0.0 | 0.0 | 0.00 | 0.02 | 0.02 | 99 | 1008.7 |
| 20260506085807 | 54 | 9 | 0.0 | 0.0 | 0.00 | 0.02 | 0.02 | 99 | 1008.7 |
| 20260506085305 | 54 | 297 | 2.0 | 2.0 | 0.00 | 0.02 | 0.02 | 99 | 1008.7 |
| 20260506084800 | 54 | 358 | 1.0 | 1.0 | 0.00 | 0.02 | 0.02 | 99 | 1008.7 |
| 20260506084257 | 53 | 4 | 0.0 | 0.0 | 0.00 | 0.02 | 0.02 | 99 | 1008.7 |
| 20260506083754 | 54 | 343 | 1.0 | 1.0 | 0.00 | 0.02 | 0.02 | 99 | 1009.1 |
| 20260506083251 | 55 | 294 | 2.0 | 2.0 | 0.00 | 0.02 | 0.02 | 99 | 1009.0 |
| 20260506082748 | 55 | 7 | 0.0 | 0.0 | 0.00 | 0.02 | 0.02 | 99 | 1008.8 |
| 20260506082243 | 55 | 352 | 0.0 | 0.0 | 0.00 | 0.02 | 0.02 | 99 | 1009.2 |
| 20260506081741 | 55 | 300 | 1.0 | 1.0 | 0.00 | 0.02 | 0.02 | 99 | 1009.4 |
| 20260506081238 | 55 | 339 | 0.0 | 1.0 | 0.00 | 0.02 | 0.02 | 99 | 1009.3 |
| 20260506080737 | 55 | 35 | 0.0 | 0.0 | 0.00 | 0.02 | 0.02 | 99 | 1008.9 |
| 20260506080233 | 55 | 35 | 0.0 | 0.0 | 0.00 | 0.02 | 0.02 | 99 | 1009.1 |
| 20260506073217 | 55 | 16 | 0.0 | 0.0 | 0.00 | 0.02 | 0.02 | 99 | 1009.3 |
| 20260506072714 | 55 | 31 | 0.0 | 0.0 | 0.00 | 0.02 | 0.02 | 99 | 1009.3 |
| 20260506072212 | 56 | 25 | 0.0 | 0.0 | 0.00 | 0.02 | 0.02 | 99 | 1009.3 |
| 20260506071709 | 56 | 359 | 1.0 | 1.0 | 0.00 | 0.02 | 0.02 | 99 | 1009.3 |
| 20260506071207 | 56 | 24 | 0.0 | 0.0 | 0.00 | 0.02 | 0.02 | 99 | 1008.9 |
| 20260506070703 | 56 | 32 | 0.0 | 1.0 | 0.00 | 0.02 | 0.02 | 99 | 1009.3 |
| 20260506070201 | 56 | 21 | 1.0 | 1.0 | 0.00 | 0.02 | 0.02 | 99 | 1009.3 |
| 20260506062137 | 57 | 46 | 0.0 | 0.0 | 0.00 | 0.02 | 0.02 | 99 | 1009.4 |
| 20260506061633 | 57 | 346 | 1.0 | 1.0 | 0.00 | 0.02 | 0.02 | 99 | 1009.4 |
| 20260506061131 | 57 | 257 | 1.0 | 2.0 | 0.00 | 0.02 | 0.02 | 99 | 1009.5 |
| 20260506060629 | 57 | 22 | 0.0 | 1.0 | 0.00 | 0.02 | 0.02 | 99 | 1009.7 |
| 20260506060126 | 57 | 283 | 1.0 | 1.0 | 0.00 | 0.02 | 0.02 | 99 | 1009.5 |
| 20260506051058 | 58 | 65 | 1.0 | 1.0 | 0.00 | 0.02 | 0.02 | 99 | 1009.3 |
| 20260506050556 | 58 | 340 | 0.0 | 1.0 | 0.00 | 0.02 | 0.02 | 99 | 1009.7 |
| 20260506045046 | 59 | 329 | 3.0 | 3.0 | 0.07 | 0.01 | 0.01 | 99 | 1009.8 |
| 20260506044544 | 59 | 8 | 0.0 | 0.0 | 0.00 | 0.00 | 0.00 | 99 | 1010.0 |
| 20260506044041 | 59 | 359 | 0.0 | 1.0 | 0.00 | 0.00 | 0.00 | 98 | 1009.8 |
| 20260506043538 | 59 | 238 | 1.0 | 2.0 | 0.00 | 0.00 | 0.00 | 98 | 1009.9 |
| 20260506043036 | 59 | 288 | 1.0 | 1.0 | 0.00 | 0.00 | 0.00 | 97 | 1009.9 |
| 20260506042535 | 59 | 252 | 1.0 | 2.0 | 0.00 | 0.00 | 0.00 | 96 | 1009.7 |
| 20260506042033 | 60 | 298 | 2.0 | 2.0 | 0.00 | 0.00 | 0.00 | 95 | 1009.4 |
| 20260506041531 | 59 | 350 | 0.0 | 1.0 | 0.00 | 0.00 | 0.00 | 94 | 1009.7 |
| 20260506041027 | 60 | 21 | 0.0 | 0.0 | 0.00 | 0.00 | 0.00 | 94 | 1009.6 |
| 20260506040525 | 60 | 26 | 0.0 | 0.0 | 0.00 | 0.00 | 0.00 | 93 | 1009.3 |
| 20260506040021 | 60 | 5 | 0.0 | 0.0 | 0.00 | 0.02 | 0.02 | 92 | 1009.3 |
| 20260506035518 | 60 | 344 | 1.0 | 1.0 | 0.00 | 0.02 | 0.02 | 91 | 1009.4 |
| 20260506035015 | 61 | 44 | 0.0 | 0.0 | 0.00 | 0.02 | 0.02 | 91 | 1009.4 |
| 20260506034513 | 61 | 44 | 0.0 | 0.0 | 0.00 | 0.02 | 0.02 | 90 | 1009.3 |
| 20260506034009 | 61 | 80 | 1.0 | 1.0 | 0.00 | 0.02 | 0.02 | 90 | 1009.3 |
| 20260506033507 | 61 | 58 | 0.0 | 1.0 | 0.00 | 0.02 | 0.02 | 89 | 1009.3 |
| 20260506033004 | 62 | 79 | 0.0 | 1.0 | 0.00 | 0.02 | 0.02 | 89 | 1009.1 |
| 20260506032501 | 61 | 284 | 2.0 | 2.0 | 0.00 | 0.02 | 0.02 | 89 | 1009.2 |
| 20260506031956 | 61 | 214 | 1.0 | 1.0 | 0.00 | 0.02 | 0.02 | 90 | 1009.1 |
| 20260506031455 | 61 | 286 | 3.0 | 3.0 | 0.00 | 0.02 | 0.02 | 88 | 1008.9 |
| 20260506030952 | 61 | 142 | 0.0 | 1.0 | 0.00 | 0.02 | 0.02 | 89 | 1009.1 |
| 20260506030450 | 61 | 258 | 1.0 | 1.0 | 0.00 | 0.02 | 0.02 | 88 | 1009.1 |
| 20260506025946 | 61 | 238 | 1.0 | 1.0 | 0.00 | 0.02 | 0.02 | 88 | 1008.9 |
| 20260506025443 | 62 | 241 | 2.0 | 2.0 | 0.00 | 0.02 | 0.02 | 87 | 1008.9 |
| 20260506024940 | 61 | 267 | 2.0 | 2.0 | 0.00 | 0.02 | 0.02 | 87 | 1008.9 |
| 20260506024437 | 61 | 149 | 1.0 | 1.0 | 0.00 | 0.02 | 0.02 | 87 | 1008.6 |
| 20260506023932 | 61 | 44 | 0.0 | 0.0 | 0.00 | 0.02 | 0.02 | 87 | 1008.7 |
| 20260506023430 | 61 | 318 | 0.0 | 1.0 | 0.00 | 0.02 | 0.02 | 86 | 1008.5 |
| 20260506022926 | 61 | 248 | 1.0 | 1.0 | 0.00 | 0.02 | 0.02 | 86 | 1008.6 |
| 20260506022424 | 62 | 269 | 2.0 | 2.0 | 0.00 | 0.02 | 0.02 | 85 | 1008.7 |
| 20260506021922 | 62 | 219 | 1.0 | 1.0 | 0.00 | 0.02 | 0.02 | 84 | 1008.7 |
| 20260506021419 | 61 | 292 | 1.0 | 1.0 | 0.00 | 0.02 | 0.02 | 86 | 1008.6 |
| 20260506020916 | 61 | 353 | 0.0 | 0.0 | 0.00 | 0.02 | 0.02 | 86 | 1008.7 |
| 20260506020414 | 61 | 29 | 0.0 | 0.0 | 0.00 | 0.02 | 0.02 | 87 | 1008.6 |
| 20260506015911 | 60 | 354 | 0.0 | 1.0 | 0.00 | 0.02 | 0.02 | 88 | 1008.5 |
| 20260506015408 | 61 | 40 | 0.0 | 0.0 | 0.00 | 0.02 | 0.02 | 87 | 1008.4 |
| 20260506014905 | 61 | 326 | 1.0 | 1.0 | 0.00 | 0.02 | 0.02 | 86 | 1008.5 |
| 20260506014402 | 62 | 339 | 0.0 | 1.0 | 0.00 | 0.02 | 0.02 | 84 | 1008.3 |
| 20260506013858 | 62 | 24 | 0.0 | 1.0 | 0.00 | 0.02 | 0.02 | 84 | 1008.5 |
| 20260506013356 | 62 | 146 | 1.0 | 1.0 | 0.00 | 0.02 | 0.02 | 84 | 1008.3 |
| 20260506012852 | 63 | 69 | 0.0 | 1.0 | 0.00 | 0.02 | 0.02 | 82 | 1008.0 |
| 20260506012349 | 63 | 179 | 1.0 | 1.0 | 0.00 | 0.02 | 0.02 | 82 | 1008.3 |
| 20260506011846 | 63 | 158 | 2.0 | 2.0 | 0.00 | 0.02 | 0.02 | 81 | 1007.9 |
| 20260506011343 | 63 | 245 | 2.0 | 2.0 | 0.00 | 0.02 | 0.02 | 81 | 1008.2 |
| 20260506010840 | 63 | 314 | 1.0 | 1.0 | 0.00 | 0.02 | 0.02 | 80 | 1008.1 |
| 20260506010338 | 62 | 163 | 5.0 | 6.0 | 0.00 | 0.02 | 0.02 | 81 | 1008.0 |
| 20260506005835 | 61 | 262 | 2.0 | 2.0 | 0.00 | 0.02 | 0.02 | 83 | 1007.9 |
| 20260506005332 | 60 | 215 | 1.0 | 1.0 | 0.00 | 0.02 | 0.02 | 84 | 1007.5 |
| 20260506004827 | 61 | 248 | 3.0 | 3.0 | 0.00 | 0.02 | 0.02 | 84 | 1007.5 |
| 20260506004326 | 62 | 329 | 0.0 | 1.0 | 0.00 | 0.02 | 0.02 | 81 | 1007.5 |
| 20260506003821 | 62 | 224 | 0.0 | 0.0 | 0.00 | 0.02 | 0.02 | 82 | 1007.4 |
| 20260506003318 | 60 | 259 | 1.0 | 1.0 | 0.00 | 0.02 | 0.02 | 84 | 1007.4 |
| 20260506002814 | 60 | 240 | 1.0 | 2.0 | 0.00 | 0.02 | 0.02 | 85 | 1007.1 |
| 20260506002310 | 63 | 245 | 3.0 | 3.0 | 0.00 | 0.02 | 0.02 | 78 | 1007.6 |
| 20260506001806 | 63 | 247 | 2.0 | 2.0 | 0.00 | 0.02 | 0.02 | 77 | 1007.3 |
| 20260506001304 | 65 | 60 | 1.0 | 1.0 | 0.00 | 0.02 | 0.02 | 74 | 1007.2 |
| 20260506000801 | 65 | 211 | 2.0 | 2.0 | 0.00 | 0.02 | 0.02 | 74 | 1007.2 |
| 20260506000259 | 65 | 194 | 2.0 | 2.0 | 0.00 | 0.02 | 0.02 | 73 | 1007.2 |
| 20260505235755 | 66 | 264 | 2.0 | 2.0 | 0.00 | 0.02 | 0.02 | 73 | 1007.2 |
| 20260505235252 | 66 | 190 | 3.0 | 3.0 | 0.00 | 0.02 | 0.02 | 72 | 1007.2 |
| 20260505234749 | 66 | 150 | 1.0 | 1.0 | 0.00 | 0.02 | 0.02 | 72 | 1007.1 |
| 20260505234247 | 66 | 129 | 2.0 | 2.0 | 0.00 | 0.02 | 0.02 | 73 | 1007.3 |
| 20260505233743 | 66 | 152 | 2.0 | 2.0 | 0.00 | 0.02 | 0.02 | 74 | 1006.8 |
| 20260505233242 | 66 | 319 | 1.0 | 2.0 | 0.00 | 0.02 | 0.02 | 72 | 1006.6 |
| 20260505232738 | 67 | 228 | 2.0 | 3.0 | 0.00 | 0.02 | 0.02 | 70 | 1006.5 |
| 20260505232236 | 67 | 274 | 0.0 | 1.0 | 0.00 | 0.02 | 0.02 | 70 | 1006.8 |
| 20260505231732 | 67 | 119 | 4.0 | 5.0 | 0.00 | 0.02 | 0.02 | 70 | 1006.7 |
| 20260505231231 | 67 | 169 | 5.0 | 6.0 | 0.00 | 0.02 | 0.02 | 70 | 1006.6 |
| 20260505230729 | 68 | 275 | 1.0 | 2.0 | 0.00 | 0.02 | 0.02 | 67 | 1006.6 |
| 20260505230226 | 68 | 274 | 7.0 | 8.0 | 0.00 | 0.02 | 0.02 | 66 | 1006.2 |
| 20260505225722 | 67 | 299 | 6.0 | 7.0 | 0.00 | 0.02 | 0.02 | 71 | 1006.4 |
| 20260505225219 | 68 | 130 | 2.0 | 2.0 | 0.00 | 0.02 | 0.02 | 70 | 1006.4 |
| 20260505224715 | 67 | 304 | 2.0 | 5.0 | 0.00 | 0.02 | 0.02 | 69 | 1006.6 |
| 20260505224213 | 68 | 253 | 2.0 | 2.0 | 0.00 | 0.02 | 0.02 | 69 | 1006.7 |
| 20260505223710 | 68 | 268 | 3.0 | 5.0 | 0.00 | 0.02 | 0.02 | 67 | 1007.0 |
| 20260505223206 | 68 | 302 | 4.0 | 5.0 | 0.00 | 0.02 | 0.02 | 68 | 1006.8 |
| 20260505222702 | 68 | 136 | 8.0 | 10.0 | 0.00 | 0.02 | 0.02 | 68 | 1006.6 |
| 20260505222158 | 68 | 267 | 3.0 | 3.0 | 0.00 | 0.02 | 0.02 | 69 | 1006.7 |
| 20260505221656 | 68 | 225 | 3.0 | 5.0 | 0.00 | 0.02 | 0.02 | 68 | 1006.6 |
| 20260505221152 | 68 | 147 | 5.0 | 6.0 | 0.00 | 0.02 | 0.02 | 67 | 1006.3 |
| 20260505220649 | 69 | 142 | 8.0 | 10.0 | 0.00 | 0.02 | 0.02 | 64 | 1005.9 |
| 20260505220147 | 68 | 162 | 5.0 | 6.0 | 0.00 | 0.02 | 0.02 | 66 | 1005.9 |
| 20260505215644 | 68 | 149 | 3.0 | 5.0 | 0.00 | 0.02 | 0.02 | 68 | 1005.8 |
| 20260505215142 | 67 | 181 | 1.0 | 3.0 | 0.00 | 0.02 | 0.02 | 69 | 1005.7 |
| 20260505214640 | 68 | 229 | 4.0 | 6.0 | 0.00 | 0.02 | 0.02 | 68 | 1005.7 |
| 20260505214137 | 68 | 305 | 6.0 | 8.0 | 0.00 | 0.02 | 0.02 | 69 | 1005.8 |
| 20260505213635 | 68 | 244 | 11.0 | 16.0 | 0.00 | 0.02 | 0.02 | 68 | 1005.7 |
| 20260505213131 | 68 | 291 | 5.0 | 6.0 | 0.00 | 0.02 | 0.02 | 69 | 1005.9 |
| 20260505212626 | 68 | 319 | 10.0 | 15.0 | 0.00 | 0.02 | 0.02 | 68 | 1005.9 |
| 20260505212124 | 68 | 273 | 5.0 | 6.0 | 0.00 | 0.02 | 0.02 | 68 | 1006.3 |
| 20260505211621 | 69 | 291 | 6.0 | 7.0 | 0.00 | 0.02 | 0.02 | 68 | 1006.3 |
| 20260505211119 | 69 | 259 | 10.0 | 11.0 | 0.00 | 0.02 | 0.02 | 67 | 1006.1 |
| 20260505210615 | 71 | 306 | 15.0 | 18.0 | 0.00 | 0.02 | 0.02 | 65 | 1006.0 |
| 20260505210112 | 71 | 221 | 11.0 | 13.0 | 0.00 | 0.02 | 0.02 | 62 | 1005.6 |
| 20260505205610 | 71 | 334 | 5.0 | 6.0 | 0.00 | 0.02 | 0.02 | 66 | 1005.7 |
| 20260505205107 | 70 | 246 | 7.0 | 9.0 | 0.00 | 0.02 | 0.02 | 69 | 1005.3 |
| 20260505204604 | 70 | 304 | 5.0 | 6.0 | 0.00 | 0.02 | 0.02 | 69 | 1004.9 |
| 20260505204102 | 70 | 48 | 1.0 | 1.0 | 0.00 | 0.02 | 0.02 | 69 | 1004.8 |
| 20260505203558 | 70 | 226 | 4.0 | 5.0 | 0.00 | 0.02 | 0.02 | 69 | 1004.8 |
| 20260505203055 | 69 | 290 | 6.0 | 7.0 | 0.00 | 0.02 | 0.02 | 71 | 1004.7 |
| 20260505202551 | 69 | 305 | 7.0 | 8.0 | 0.00 | 0.02 | 0.02 | 72 | 1004.6 |
| 20260505202047 | 68 | 294 | 7.0 | 8.0 | 0.00 | 0.02 | 0.02 | 74 | 1004.6 |
| 20260505201544 | 67 | 271 | 4.0 | 5.0 | 0.00 | 0.02 | 0.02 | 76 | 1004.4 |
| 20260505201042 | 67 | 300 | 8.0 | 9.0 | 0.00 | 0.02 | 0.02 | 76 | 1004.4 |
| 20260505200540 | 67 | 266 | 6.0 | 7.0 | 0.00 | 0.02 | 0.02 | 75 | 1005.1 |
| 20260505200036 | 67 | 280 | 9.0 | 10.0 | 0.00 | 0.02 | 0.02 | 75 | 1005.7 |
| 20260505195532 | 68 | 290 | 15.0 | 18.0 | 0.00 | 0.02 | 0.02 | 73 | 1006.3 |
| 20260505195029 | 68 | 284 | 15.0 | 18.0 | 0.00 | 0.02 | 0.02 | 71 | 1006.3 |
| 20260505194526 | 68 | 289 | 15.0 | 17.0 | 0.00 | 0.02 | 0.02 | 69 | 1005.6 |
| 20260505194021 | 68 | 270 | 7.0 | 11.0 | 0.05 | 0.02 | 0.02 | 72 | 1005.6 |
| 20260505193519 | 68 | 285 | 5.0 | 6.0 | 0.05 | 0.02 | 0.02 | 71 | 1005.6 |
| 20260505193016 | 67 | 290 | 6.0 | 8.0 | 0.07 | 0.01 | 0.01 | 74 | 1004.9 |
| 20260505192515 | 68 | 316 | 18.0 | 23.0 | 0.07 | 0.01 | 0.01 | 74 | 1005.2 |
| 20260505192012 | 77 | 256 | 11.0 | 17.0 | 0.00 | 0.00 | 0.00 | 46 | 1004.6 |
| 20260505191510 | 78 | 215 | 5.0 | 7.0 | 0.00 | 0.00 | 0.00 | 48 | 1003.9 |
| 20260505191008 | 78 | 151 | 3.0 | 5.0 | 0.00 | 0.00 | 0.00 | 47 | 1003.4 |
| 20260505190503 | 79 | 246 | 5.0 | 7.0 | 0.00 | 0.00 | 0.00 | 46 | 1003.4 |
| 20260505185958 | 79 | 215 | 7.0 | 10.0 | 0.00 | 0.00 | 0.00 | 45 | 1003.4 |
| 20260505185455 | 79 | 144 | 6.0 | 9.0 | 0.00 | 0.00 | 0.00 | 45 | 1003.1 |
| 20260505184951 | 80 | 171 | 10.0 | 15.0 | 0.00 | 0.00 | 0.00 | 44 | 1003.2 |
| 20260505184448 | 80 | 168 | 12.0 | 15.0 | 0.00 | 0.00 | 0.00 | 44 | 1003.1 |
| 20260505183945 | 81 | 232 | 4.0 | 7.0 | 0.00 | 0.00 | 0.00 | 44 | 1003.2 |
| 20260505183442 | 80 | 235 | 3.0 | 5.0 | 0.00 | 0.00 | 0.00 | 44 | 1003.1 |
| 20260505182939 | 80 | 142 | 10.0 | 13.0 | 0.00 | 0.00 | 0.00 | 45 | 1003.2 |
| 20260505182436 | 80 | 129 | 7.0 | 11.0 | 0.00 | 0.00 | 0.00 | 45 | 1003.6 |
| 20260505181932 | 81 | 121 | 9.0 | 13.0 | 0.00 | 0.00 | 0.00 | 44 | 1003.4 |
| 20260505181430 | 83 | 162 | 10.0 | 13.0 | 0.00 | 0.00 | 0.00 | 42 | 1003.6 |
| 20260505180926 | 84 | 149 | 9.0 | 15.0 | 0.00 | 0.00 | 0.00 | 42 | 1003.2 |
| 20260505180422 | 83 | 211 | 10.0 | 14.0 | 0.00 | 0.00 | 0.00 | 42 | 1003.6 |
| 20260505175919 | 84 | 176 | 6.0 | 10.0 | 0.00 | 0.00 | 0.00 | 41 | 1003.6 |
| 20260505175415 | 83 | 139 | 14.0 | 17.0 | 0.00 | 0.00 | 0.00 | 42 | 1003.6 |
| 20260505174912 | 82 | 178 | 14.0 | 17.0 | 0.00 | 0.00 | 0.00 | 42 | 1003.9 |
| 20260505174410 | 82 | 330 | 4.0 | 8.0 | 0.00 | 0.00 | 0.00 | 43 | 1004.0 |
| 20260505173906 | 80 | 252 | 5.0 | 10.0 | 0.00 | 0.00 | 0.00 | 45 | 1004.0 |
| 20260505173403 | 82 | 164 | 9.0 | 11.0 | 0.00 | 0.00 | 0.00 | 44 | 1004.0 |
| 20260505172859 | 82 | 190 | 14.0 | 22.0 | 0.00 | 0.00 | 0.00 | 41 | 1004.1 |
| 20260505172357 | 82 | 157 | 9.0 | 13.0 | 0.00 | 0.00 | 0.00 | 43 | 1004.0 |
| 20260505171856 | 83 | 151 | 7.0 | 11.0 | 0.00 | 0.00 | 0.00 | 42 | 1004.0 |
| 20260505171353 | 83 | 155 | 11.0 | 14.0 | 0.00 | 0.00 | 0.00 | 42 | 1003.9 |
| 20260505170850 | 84 | 166 | 12.0 | 16.0 | 0.00 | 0.00 | 0.00 | 41 | 1004.3 |
| 20260505170347 | 82 | 171 | 9.0 | 16.0 | 0.00 | 0.00 | 0.00 | 45 | 1004.4 |
| 20260505165842 | 80 | 193 | 8.0 | 13.0 | 0.00 | 0.00 | 0.00 | 47 | 1004.3 |
| 20260505165338 | 80 | 205 | 9.0 | 11.0 | 0.00 | 0.00 | 0.00 | 47 | 1004.4 |
| 20260505164834 | 80 | 165 | 8.0 | 16.0 | 0.00 | 0.00 | 0.00 | 46 | 1005.0 |
| 20260505164331 | 81 | 201 | 15.0 | 20.0 | 0.00 | 0.00 | 0.00 | 44 | 1005.2 |
| 20260505163829 | 80 | 219 | 7.0 | 11.0 | 0.00 | 0.00 | 0.00 | 45 | 1004.9 |
| 20260505163327 | 81 | 256 | 5.0 | 8.0 | 0.00 | 0.00 | 0.00 | 46 | 1005.4 |
| 20260505162825 | 79 | 223 | 7.0 | 9.0 | 0.00 | 0.00 | 0.00 | 47 | 1005.3 |
| 20260505162321 | 79 | 211 | 9.0 | 11.0 | 0.00 | 0.00 | 0.00 | 47 | 1005.4 |
| 20260505161819 | 79 | 124 | 7.0 | 14.0 | 0.00 | 0.00 | 0.00 | 45 | 1005.6 |
| 20260505161316 | 78 | 163 | 7.0 | 11.0 | 0.00 | 0.00 | 0.00 | 48 | 1005.7 |
| 20260505160813 | 78 | 162 | 11.0 | 15.0 | 0.00 | 0.00 | 0.00 | 49 | 1005.6 |
| 20260505160311 | 78 | 178 | 8.0 | 10.0 | 0.00 | 0.00 | 0.00 | 47 | 1006.1 |
| 20260505153250 | 75 | 255 | 6.0 | 8.0 | 0.00 | 0.00 | 0.00 | 55 | 1006.4 |
| 20260505152747 | 74 | 131 | 5.0 | 9.0 | 0.00 | 0.00 | 0.00 | 55 | 1006.3 |
| 20260505152243 | 74 | 194 | 8.0 | 11.0 | 0.00 | 0.00 | 0.00 | 55 | 1006.6 |
| 20260505151737 | 73 | 143 | 6.0 | 8.0 | 0.00 | 0.00 | 0.00 | 56 | 1006.3 |
| 20260505151235 | 73 | 158 | 12.0 | 17.0 | 0.00 | 0.00 | 0.00 | 56 | 1006.5 |
| 20260505150732 | 71 | 213 | 4.0 | 5.0 | 0.00 | 0.00 | 0.00 | 57 | 1006.5 |
| 20260505150230 | 72 | 246 | 5.0 | 6.0 | 0.00 | 0.00 | 0.00 | 60 | 1006.7 |
| 20260505140159 | 66 | 220 | 7.0 | 7.0 | 0.00 | 0.00 | 0.00 | 66 | 1008.1 |